Weather in Belyanka

Russia / Republic of Bashkortostan     56°02′42″N   59°14′13″E
temp.,
°C
wind,
m/s
gust,
m/s
humid.,
%
clouds,
%
prec.,
mm/h
press.,
hPa
HPBL,
m
7 march, sun
sun723:00−16w239751 0.1 101371
02:00−18sw129955 0.0 101320
05:00−18ssw129877 0.0 101220
08:00−20s1110080 0.0 101120
11:00−12n118885 0.0 1011251
14:00−10wnw2282100 0.2 1009684
17:00−11wnw3583100 0.3 1008678
20:00−17wsw129623 0.0 100920
8 march, mon
mon823:00−18w249739 0.1 101094
02:00−19sw229958 0.0 101041
05:00−20ssw2310079 0.1 101055
08:00−18sse249797 0.0 1008111
11:00−11sse379398 0.5 1005413
14:00−7ssw51088100 0.8 10021182
17:00−7ssw61388100 1.6 10001182
20:00−5wsw51484100 0.7 10001579
9 march, tue
tue923:00−9sw6158388 0.7 1002754
02:00−9sw6168746 0.0 1004815
05:00−11sw4129169 0.0 1005454
08:00−14s239784 0.0 100565
11:00−6sse239392 0.3 1003263
14:00−3sw3886100 1.6 10021103
17:00−6wsw7127588 2.1 10031422
20:00−9w4109198 0.3 1006514
10 march, wed
wed1023:00−13wsw269799 0.3 1008143
02:00−16sw1298100 0.1 100820
05:00−16n0198100 0.1 100820
08:00−16nnw1198100 0.0 100720
11:00−13nnw2492100 0.1 1007302
14:00−11nw3588100 0.1 1007525
17:00−12nw4690100 0.2 1007632
20:00−19wnw4896100 0.1 1010277
11 march, thu
thu1123:00−24wnw2398100 0.1 101373
02:00−27w249992 0.0 101472
05:00−29w249974 0.0 101679
08:00−29wsw239982 0.0 101764
11:00−23wsw489389 0.0 1016389
14:00−18wsw51089100 0.1 1015724
17:00−17wsw61191100 0.2 1016749
20:00−19w51193100 0.3 1017716